Regional Weather Roundup
Issued by NWS Charleston, WV

Home | Current Version | Previous Version | Graphics & Text | Print | Product List | Glossary On
Versions: 1 2 3 4 5 6 7 8 9 10 11 12 13 14 15 16 17 18 19 20 21 22 23 24 25 26 27 28 29 30 31 32 33 34 35 36 37 38 39 40 41 42 43 44 45 46 47 48 49 50
000
ASUS41 KRLX 240110
RWRRLX
West Virginia Regional Weather Roundup
National Weather Service Charleston WV
800 PM EST TUE DEC 23 2014

Note: "fair" indicates few or no clouds below 12,000 feet with no
significant weather and/or obstructions to visibility.

WVZ003-240200-
Northern Panhandle of West Virginia

CITY           SKY/WX    TMP DP  RH WIND       PRES   REMARKS
WHEELING         N/A     54  47  77 E8        29.84F
$$

WVZ009-240200-
Northwest West Virginia

CITY           SKY/WX    TMP DP  RH WIND       PRES   REMARKS
PARKERSBURG    RAIN      55  52  89 SE6       29.86F FOG
$$

WVZ006-240200-
Western West Virginia

CITY           SKY/WX    TMP DP  RH WIND       PRES   REMARKS
HUNTINGTON     LGT RAIN  56  55  97 SE3       29.80F
$$

WVZ015-240200-
West Central West Virginia

CITY           SKY/WX    TMP DP  RH WIND       PRES   REMARKS
CHARLESTON     LGT RAIN  54  50  86 E5        29.82F
$$

WVZ022-031-240200-
North Central West Virginia

CITY           SKY/WX    TMP DP  RH WIND       PRES   REMARKS
CLARKSBURG       N/A     57  48  72 CALM      29.86R
MORGANTOWN       N/A     53  40  61 VRB5      29.87F
$$

WVZ025-035-042-045-240200-
Southern West Virginia

CITY           SKY/WX    TMP DP  RH WIND       PRES   REMARKS
BECKLEY        CLOUDY    52  48  86 SW13      29.87F
LOGAN          CLOUDY    59  52  77 VRB6      29.83R
BLUEFIELD      LGT RAIN  56  49  77 S13G23    29.89R
LEWISBURG      CLOUDY    48  46  92 NE3       29.94R
$$

WVZ047-240200-
Northern Mountains of West Virginia

CITY           SKY/WX    TMP DP  RH WIND       PRES   REMARKS
ELKINS           N/A     48  47  96 CALM      29.89F
$$

WVZ052-240200-
Eastern Panhandle of West Virginia

CITY           SKY/WX    TMP DP  RH WIND       PRES   REMARKS
MARTINSBURG    FOG       39  36  89 CALM      30.04F VSB 1/2
PETERSBURG     CLOUDY    35  35 100 CALM      30.03F FOG
$$


USA.gov is the U.S. government's official web portal to all federal, state and local government web resources and services.